Skip Page Navigation
NASA JPL Caltech
NASA Logo - Jet Propulsion Laboratory + View the NASA Portal
+ Center for Near-Earth Object Studies
JPL Home Earth Solar System Stars & Galaxies Technology
JPL Solar System Dynamics
BODIES ORBITS EPHEMERIDES TOOLS PHYSICAL DATA DISCOVERY FAQ SITE MAP
JPL Small-Body Database Browser
Search: [ help ]  
17262 Winokur (2000 JS62)
Classification: Main-belt Asteroid          SPK-ID: 2017262
Ephemeris | Orbit Diagram | Orbital Elements | Mission Design | Physical Parameters | Discovery Circumstances ]

[ show orbit diagram ]
Orbital Elements at Epoch 2459396.5 (2021-Jul-01.0) TDB
Reference: JPL 39 (heliocentric ecliptic J2000)
 Element Value Uncertainty (1-sigma)   Units 
e .1105071344424137 3.1703e-08  
a 2.304879544461984 6.1623e-09 au
q 2.050173910768554 7.2957e-08 au
i 5.814319835672785 2.9955e-06 deg
node 299.4708471603008 3.5692e-05 deg
peri 120.469543284889 3.9159e-05 deg
M 160.4930266171649 1.5403e-05 deg
tp 2458826.697377570658
(2019-Dec-09.19737757)
5.4597e-05 TDB
period 1278.117488330949
3.50
5.1257e-06
1.403e-08
d
yr
n .2816642470561231 1.1296e-09 deg/d
Q 2.559585178155413 6.8432e-09 au
  Orbit Determination Parameters
   # obs. used (total)      2006  
   data-arc span      13379 days (36.63 yr)  
   first obs. used      1984-10-30  
   last obs. used      2021-06-17  
   planetary ephem.      DE441  
   SB-pert. ephem.      SB441-N16  
   condition code      0  
   norm. resid. RMS      .46955  
   source      ORB  
   producer      Otto Matic  
   solution date      2021-Jul-08 04:22:24  

Additional Information
 Earth MOID = 1.06988 au 
 Jupiter MOID = 2.70668 au 
 T_jup = 3.574 
[ show covariance matrix ]

Ephemeris | Orbit Diagram | Orbital Elements | Mission Design | Physical Parameters | Discovery Circumstances ]

Physical Parameter Table
Parameter Symbol Value Units Sigma Reference Notes
absolute magnitude H 14.56   n/a MPO614063  
diameter diameter 2.703 km 0.593 urn:nasa:pds:neowise_diameters_albedos::2.0[mainbelt] (http://adsabs.harvard.edu/abs/2011ApJ...741...68M)  
geometric albedo albedo 0.461   0.096 urn:nasa:pds:neowise_diameters_albedos::2.0[mainbelt] (http://adsabs.harvard.edu/abs/2011ApJ...741...68M)  

17262 Winokur           Discovered 2000 May 9 by the Lincoln Laboratory Near-Earth Asteroid Research Team at Socorro.
Named in honor of Bruce Winokur for mentoring two finalists in the 2002 Intel Science Talent Search, a science competition for high school seniors. Winokur is a teacher at the Stuyvesant High School, New York, New York.
NOTE: some special characters may not display properly (any characters within {} are an attempt to place the proper accent above a character)
Reference: 20020227/MPCPages.arcLast Updated: 2003-10-02

Alternate Designations
 2000 JS62 = 1984 UM5 
Ephemeris | Orbit Diagram | Orbital Elements | Mission Design | Physical Parameters | Discovery Circumstances ]
ABOUT SSD CREDITS/AWARDS PRIVACY/COPYRIGHT GLOSSARY LINKS
FirstGov 2021-Aug-03 14:34 UT
(server date/time)  
NASA Home Page
Site Manager:   Ryan S. Park
Webmaster  Alan B. Chamberlin